Content
SEND FEEDBACK

Daily
Averages
Monthly
Summary
United States of America

NEWBERRY, MICHIGAN


Home > North America > United States > Michigan
Elevation: 873 feet     Latitude: 46 19N     Longitude: 085 30W

WEATHER
 
SELECT A DAY
Number of Records: 311,088;   Date Range: 8/5/97 - 12/18/14
 
SHARE

PRINT THIS DATA

[ ← Previous Day ]
WEATHER ALMANAC - JANUARY 31, 2013
[ Next Day → ]
[ °C ]   °F
Weather ElementAverageHighLow
Temperature12 °F15.8 °F (3:15 pm)8.6 °F (7:54 am)
Dewpoint8.4 °F10.4 °F (2:15 pm)5 °F (9:34 am)
Humidity85.4 %92 % (4:35 am)73 % (3:15 pm)
Barometer29.54 in29.80 in (11:34 pm)29.24 in (12:34 am)
Wind Speed7.7 mph12.7 mph (12:34 am)
Wind Gust24.2 mph (3:55 pm)
Weather ElementAverage
Visibility2.9 mi
Wind DirectionNW (317.5 °)

Weather ElementTotal
Precipitation---
Heating Degree Days52.8 (Base 65)
Averaged from 68 records on January 31, 2013
WEATHER CONDITIONS BREAKOUT
WIND DIRECTION BREAKOUT
WEATHER BY HOUR - JANUARY 31, 2013
[ °C ]   °F
Local TimeTemperatureDewpointHumidityBarometerVisibilityWind DirectionWind SpeedGust SpeedPrecipitationEventsConditions
12:34 AM10.4 °F6.8 °F85 %29.24 in4.0 miNorth (350°)12.7 mph19.6 mphSnowLight Snow
12:55 AM10.4 °F6.8 °F85 %29.25 in7.0 miNorth (360°)11.5 mph21.9 mphOvercast
1:15 AM10.4 °F6.8 °F85 %29.26 in7.0 miNorth (350°)10.4 mph18.4 mphSnowLight Snow
1:34 AM10.4 °F6.8 °F85 %29.27 in5.0 miNorth (350°)9.2 mphSnowLight Snow
1:55 AM10.4 °F6.8 °F85 %29.29 in4.0 miNNW (340°)9.2 mphSnowLight Snow
2:14 AM10.4 °F6.8 °F85 %29.30 in3.0 miNorth (350°)6.9 mphSnowLight Snow
2:35 AM10.4 °F6.8 °F85 %29.31 in4.0 miNorth (350°)6.9 mphSnowLight Snow
2:55 AM10.4 °F6.8 °F85 %29.32 in4.0 miNNW (340°)8.1 mphSnowLight Snow
3:14 AM10.4 °F6.8 °F85 %29.32 in2.0 miNNW (340°)10.4 mphSnowLight Snow
3:35 AM10.4 °F6.8 °F85 %29.32 in1.8 miNNW (340°)8.1 mphSnowLight Snow
3:54 AM10.4 °F6.8 °F85 %29.33 in1.5 miNNW (330°)6.9 mphSnowLight Snow
4:15 AM10.4 °F6.8 °F85 %29.33 in1.2 miNNW (340°)5.8 mphSnowLight Snow
4:35 AM10.4 °F8.6 °F92 %29.34 in2.0 miNNW (330°)9.2 mph19.6 mphSnowLight Snow
4:54 AM10.4 °F8.6 °F92 %29.35 in3.0 miNW (320°)11.5 mph17.3 mphSnowLight Snow
5:15 AM10.4 °F8.6 °F92 %29.36 in2.5 miNNW (330°)10.4 mphSnowLight Snow
5:35 AM10.4 °F6.8 °F85 %29.37 in2.0 miNNW (330°)6.9 mphSnowLight Snow
5:54 AM10.4 °F6.8 °F85 %29.37 in2.0 miNNW (340°)8.1 mphSnowLight Snow
6:15 AM10.4 °F6.8 °F85 %29.39 in1.5 miNNW (340°)8.1 mphSnowLight Snow
6:35 AM10.4 °F6.8 °F85 %29.40 in1.5 miNNW (330°)5.8 mphSnowLight Snow
6:54 AM10.4 °F6.8 °F85 %29.40 in1.2 miNNW (330°)5.8 mphSnowLight Snow
7:15 AM10.4 °F6.8 °F85 %29.42 in1.2 miNNW (330°)4.6 mphSnowLight Snow
7:34 AM10.4 °F6.8 °F85 %29.43 in1.2 miNNW (330°)6.9 mphSnowLight Snow
7:54 AM8.6 °F6.8 °F92 %29.43 in4.0 miNW (320°)8.1 mphSnowLight Snow
8:15 AM8.6 °F6.8 °F92 %29.45 in7.0 miNW (310°)8.1 mphSnowLight Snow
8:34 AM8.6 °F6.8 °F92 %29.46 in7.0 miNW (320°)6.9 mphOvercast
8:55 AM10.4 °F6.8 °F85 %29.47 in4.0 miNW (310°)5.8 mphSnowLight Snow
9:14 AM10.4 °F6.8 °F85 %29.49 in4.0 miNW (320°)6.9 mphSnowLight Snow
9:34 AM10.4 °F5.0 °F79 %29.49 in7.0 miNW (320°)8.1 mphOvercast
9:55 AM10.4 °F6.8 °F85 %29.50 in3.0 miNW (320°)8.1 mphSnowLight Snow
10:35 AM10.4 °F6.8 °F85 %29.52 in1.2 miNW (310°)5.8 mphSnowLight Snow
10:55 AM12.2 °F8.6 °F85 %29.53 in1.8 miNW (310°)6.9 mphSnowLight Snow
11:14 AM12.2 °F6.8 °F79 %29.54 in4.0 miNW (310°)9.2 mphSnowLight Snow
11:35 AM12.2 °F6.8 °F79 %29.55 in3.0 miNW (320°)8.1 mphSnowLight Snow
11:59 AM12.2 °F8.6 °F85 %29.55 in4.0 miNW (310°)8.1 mph17.3 mphSnowLight Snow
12:15 PM12.2 °F8.6 °F85 %29.55 in4.0 miNW (310°)12.7 mph16.1 mphSnowLight Snow
12:35 PM14.0 °F8.6 °F79 %29.56 in4.0 miNNW (330°)8.1 mphSnowLight Snow
12:54 PM14.0 °F8.6 °F79 %29.57 in3.0 miNW (320°)8.1 mphSnowLight Snow
1:15 PM14.0 °F8.6 °F79 %29.57 in4.0 miNNW (330°)8.1 mphSnowLight Snow
1:34 PM14.0 °F8.6 °F79 %29.58 in1.8 miNNW (330°)6.9 mphSnowLight Snow
1:55 PM14.0 °F8.6 °F79 %29.58 in2.5 miNNW (340°)11.5 mph19.6 mphSnowLight Snow
2:15 PM14.0 °F10.4 °F86 %29.59 in1.8 miNNW (340°)8.1 mphSnowLight Snow
2:34 PM14.0 °F8.6 °F79 %29.59 in2.0 miNW (310°)8.1 mph11.5 mphSnowLight Snow
2:55 PM14.0 °F10.4 °F86 %29.60 in2.0 miWNW (300°)8.1 mphSnowLight Snow
3:15 PM15.8 °F8.6 °F73 %29.61 in3.0 miNW (320°)9.2 mphSnowLight Snow
3:34 PM15.8 °F10.4 °F79 %29.62 in2.0 miNNW (340°)11.5 mphSnowLight Snow
3:55 PM15.8 °F10.4 °F79 %29.63 in2.5 miNW (320°)10.4 mph24.2 mphSnowLight Snow
4:15 PM15.8 °F10.4 °F79 %29.64 in1.8 miNW (320°)6.9 mphSnowLight Snow
4:34 PM15.8 °F10.4 °F79 %29.65 in1.8 miNNW (330°)5.8 mphSnowLight Snow
4:55 PM14.0 °F10.4 °F86 %29.66 in1.8 miNW (310°)10.4 mphSnowLight Snow
5:15 PM14.0 °F10.4 °F86 %29.67 in1.2 miNW (310°)9.2 mph16.1 mphSnowLight Snow
5:34 PM14.0 °F10.4 °F86 %29.68 in1.2 miNW (320°)9.2 mphSnowLight Snow
5:55 PM14.0 °F10.4 °F86 %29.68 in2.0 miWNW (300°)5.8 mphSnowLight Snow
6:14 PM14.0 °F10.4 °F86 %29.69 in1.8 miWNW (290°)6.9 mphSnowLight Snow
6:35 PM14.0 °F10.4 °F86 %29.70 in2.0 miWNW (290°)6.9 mphSnowLight Snow
6:55 PM14.0 °F10.4 °F86 %29.71 in1.2 miWNW (290°)9.2 mphSnowLight Snow
7:14 PM14.0 °F10.4 °F86 %29.72 in2.5 miWNW (290°)8.1 mphSnowLight Snow
7:35 PM14.0 °F10.4 °F86 %29.72 in4.0 miWNW (290°)8.1 mphSnowLight Snow
8:15 PM12.2 °F10.4 °F92 %29.74 in7.0 miWNW (290°)5.8 mphSnowLight Snow
8:35 PM12.2 °F10.4 °F92 %29.74 in5.0 miWNW (300°)5.8 mphSnowLight Snow
8:54 PM12.2 °F10.4 °F92 %29.75 in4.0 miWNW (300°)5.8 mphSnowLight Snow
9:15 PM12.2 °F10.4 °F92 %29.76 in1.5 miWNW (300°)5.8 mphSnowLight Snow
9:34 PM12.2 °F10.4 °F92 %29.76 in1.0 miNW (310°)4.6 mphSnowSnow
9:55 PM12.2 °F10.4 °F92 %29.77 in2.0 miNW (320°)6.9 mphSnowLight Snow
10:15 PM12.2 °F10.4 °F92 %29.78 in2.0 miNW (320°)4.6 mphSnowLight Snow
10:34 PM12.2 °F10.4 °F92 %29.79 in1.2 miNW (320°)4.6 mphSnowLight Snow
10:55 PM12.2 °F10.4 °F92 %29.79 in1.8 miNNW (330°)4.6 mphSnowLight Snow
11:15 PM12.2 °F8.6 °F85 %29.79 in2.0 miCalmSnowLight Snow
11:34 PM12.2 °F8.6 °F85 %29.80 in1.8 miNNW (340°)3.5 mphSnowLight Snow
Hourly data recorded from KERY, located miles away from Newberry, Michigan







STORIES FROM OUR PARTNERS